OneWeb SL0513

operational
NORAD ID: 54131 Int'l Des: 2022-138 Owner: ONEWEBN Country: UK Constellation: oneweb
LEOCIRCULARPOLARONEWEB_TYPE

关于 OneWeb SL0513

正在加载描述...

实时位置

正在加载3D地球...

即将过境

高度历史

Altitude vs Time

uPlot chart will show altitude changes over time

两行轨道根数

1 54131U 22138U 25352.48870663 .00000016 00000-0 67212-5 0 9999
2 54131 87.9214 340.8910 0002664 84.6005 275.5432 13.20259824152870
Epoch: Dec 18, 2025 • Age: 13 hours

当前状态

高度 1194.3 km
速度 7.26 km/s
星下点 71.55°N, 51.56°E
发射日期 Oct 22, 2022
运行时间 3.1 years
类型 internet

技术详情

分类 Payload
质量 148.00 kg
干质量 140.00 kg
总质量 148.00 kg
长度 1.30 m
直径 1.00 m
跨度 5.00 m
形状 Trapezoid+2 pan
制造商 ONEWUS
平台类型 ARROW
阶段状态 In Orbit
所有者/国家 ONEWEBN/UK

大型星座

Loading constellations...